User: anonymous   Login
Location: Unspecified
(0.0000°N, 0.0000°E)
Time: 23:44:21
(UTC+00:00)
Language:

Courier 1B - Orbit

View from above orbital plane
View from above orbital plane
View from above satellite
View from above satellite

Ground track
Ground track

The orbit data is extracted from the following two-line orbital elements,

1 00058U 60013A   17348.67258441  .00000080  00000-0 -35460-5 0  9995
2 00058  28.3285  60.5844 0165044  47.4754 313.9602 13.46311673815644
Epoch (UTC): 14 December 2017 16:08:31
Eccentricity: 0.0165044
inclination: 28.3285°
perigee height: 962 km
apogee height: 1209 km
right ascension of ascending node: 60.5844°
argument of perigee: 47.4754°
revolutions per day: 13.46311673
mean anomaly at epoch: 313.9602°
orbit number at epoch: 81564

The dashed part of the orbit path shows where the satellite is in the earth's shadow,  

DLR